Regional Weather Roundup
Issued by NWS

Home | Current Version | Previous Version | Text Only | Print | Product List | Glossary On
Versions: 1 2 3 4 5 6 7 8 9 10 11 12 13 14 15 16 17 18 19 20 21 22 23 24 25 26 27 28 29 30 31 32 33 34 35 36 37 38 39 40 41 42 43 44 45 46 47 48 49 50
000
ASUS42 KTBW 240610
RWRFL
FLORIDA REGIONAL WEATHER ROUNDUP
NATIONAL WEATHER SERVICE TAMPA BAY RUSKIN FL
200 AM EDT THU JUL 24 2014

NOTE: "FAIR" INDICATES FEW OR NO CLOUDS BELOW 12,000 FEET WITH NO
SIGNIFICANT WEATHER AND/OR OBSTRUCTIONS TO VISIBILITY.


FLZ001>010-012>015-112-114-115-240700-
PANHANDLE FLORIDA

CITY           SKY/WX    TMP DP  RH WIND       PRES   REMARKS
PENSACOLA      CLEAR     74  72  93 CALM      30.00F
PENSACOLA NAS  CLEAR     73  72  96 CALM      29.99F
MILTON NAS     CLEAR     72  70  93 CALM      30.00F
CRESTVIEW      CLEAR     73  71  93 CALM      30.02F
DUKE FIELD     FAIR      74  74 100 S2        30.01F
VALPARAISO     PTCLDY    77  74  88 N2        29.99F
MARY ESTHER    CLEAR     78  71  80 N2        29.99F
PANAMA CITY    FAIR      76  73  91 CALM      30.00F
TYNDALL AFB    PTCLDY    81  75  84 SW7       30.01F
APALACHICOLA   CLEAR     81  74  79 SW7       30.01F

STATION/POSITION SKY/WX   TEMP    WIND        PRES    WAVE   SWELL
                          AIR SEA DIR/SP/G            HT/PER HT/PER
                          (F)     (DEG/KT/KT) (MB)    (FT/S) (FT/S)
30.1N   87.6W              82 83  230/  8/ 10 1015.9F   1/ 4
29.2N   88.2W              82 84  200/  8/ 10 1016.4F
PANAMA CITY BEAC           82 84  230/  8/  9 1016.2F
CAPE SAN BLAS    NOT AVBL
TOWER C                    82     240/  9/ 10 1017.0F
28.5N   84.5W              83 84  220/  6/  8 1016.8F   1

$$
FLZ011-016>038-118-127-128-134-139-239-240700-
NORTH FLORIDA

CITY           SKY/WX    TMP DP  RH WIND       PRES   REMARKS
MARIANNA       CLEAR     74  74 100 SW3       30.00F
TALLAHASSEE    CLEAR     75  72  90 CALM      30.02F
PERRY          CLEAR     73  72  94 CALM      30.02F
CROSS CITY       N/A     75  72  90 CALM      30.02F
GAINESVILLE    CLEAR     74  73  97 CALM      30.03S
MAYPORT NAS    PTCLDY    80  75  84 SW7       30.01F
JACKSONVILLE   PTCLDY    77  75  93 SW5       30.01S
JAX NAS        CLEAR     84  73  69 SW7       30.02F
JAX CRAIG      CLEAR     81  75  82 SW5       30.01F
JAX CECIL      CLEAR     75  73  94 CALM      30.02F
FERNANDINA BEA FAIR      81  77  89 SW6       30.00S
ST AUGUSTINE   CLEAR     79  75  87 SW5       30.03S

STATION/POSITION SKY/WX   TEMP    WIND        PRES    WAVE   SWELL
                          AIR SEA DIR/SP/G            HT/PER HT/PER
                          (F)     (DEG/KT/KT) (MB)    (FT/S) (FT/S)
SHELL POINT                80     280/  7/ 10   N/A
KEATON BEACH               83     250/ 11/ 12 1017.0F
CEDAR KEY                  84     270/  6/  8 1017.2F
FERNANDINA                 81 85  210/  9/ 11 1015.8R
30.7N   81.3W                 84                N/A     3/ 4
MAYPORT                    81 86  230/  7/  9   N/A
31.4N   80.9W              84 84  210/ 17/ 21 1015.5F   3/ 4   2/ 7
ST AUGUSTINE               80     210/  7/  9 1017.2F

$$
FLZ040-043>046-052-053-057-058-063-144-240700-
INTERIOR CENTRAL FLORIDA

CITY           SKY/WX    TMP DP  RH WIND       PRES   REMARKS
OCALA          PTCLDY    73  66  78 CALM      30.03F
LEESBURG       MOCLDY    81  75  82 CALM      30.03F
SANFORD        CLEAR     81  77  88 S7        30.01F
ORLANDO EXEC   CLEAR     80  78  94 S5        30.02F
ORLANDO INTL   CLEAR     79  77  94 CALM      30.03F
WINTER HAVEN   CLEAR     78  76  93 CALM      30.04F
LAKELAND         N/A     77  75  94 CALM      30.05S
BARTOW         FAIR      75 N/A N/A CALM      30.04F
OKEECHOBEE       N/A     75  73  94 MISG      30.05F

$$
FLZ041-047-054-059-064-141-147-240700-
EAST CENTRAL FLORIDA

CITY           SKY/WX    TMP DP  RH WIND       PRES   REMARKS
DAYTONA BEACH  CLEAR     79  76  90 CALM      30.02F
DELAND           N/A     79  75  89 CALM      30.03F
JFK SPACE CTR  CLEAR     80  80 100 SW6       30.02F
CAPE CANAVERAL PTCLDY    81  76  85 SW5       30.02F
PATRICK AFB    CLEAR     81  76  86 SW9       30.03F
MELBOURNE      CLEAR     79  75  87 SW5       30.03F
VERO BEACH     CLEAR     77  77 100 S6        30.03F
FT PIERCE      CLEAR     78  74  87 CALM      30.03F
STUART         CLEAR     79  75  89 CALM      30.05F

STATION/POSITION SKY/WX   TEMP    WIND        PRES    WAVE   SWELL
                          AIR SEA DIR/SP/G            HT/PER HT/PER
                          (F)     (DEG/KT/KT) (MB)    (FT/S) (FT/S)
28.5N   80.2W              83 83  180/ 14/ 17 1017.1F
28.9N   78.5W              83 83  180/ 14/ 16 1017.5F
TRIDENT PIER               83 87  190/  9/ 11 1016.4F
28.4N   80.5W                 85                N/A     2/ 4
27.6N   80.2W                 83                N/A     2/ 7

$$
FLZ050-056-061-142-242-148-248-149-249-151-251-155-255-
160-260-240700-
WEST CENTRAL FLORIDA

CITY           SKY/WX    TMP DP  RH WIND       PRES   REMARKS
CRYSTAL RIVER  FAIR      73  72  94 CALM      30.02F
INVERNESS      FAIR      73  72  94 CALM      30.03S
BROOKSVILLE    PTCLDY    76  74  93 SE3       30.04S
ZEPHYRHILLS    FAIR      77  75  94 CALM      30.05S
CLEARWATER     CLEAR     80  75  84 CALM      30.03F
TAMPA INTL     PTCLDY    83  74  74 CALM      30.03F
TAMPA EXEC     CLEAR     77  73  88 CALM      30.04S
PLANT CITY     CLEAR     79 N/A N/A S3        30.06S
MACDILL AFB    CLEAR     80  78  96 SE3       30.03F
ST PETERSBURG  CLEAR     85  74  69 N3        30.02S
SARASOTA       CLEAR     80  74  81 CALM      30.02F
VENICE         FAIR      81  75  83 E3        30.04S

STATION/POSITION SKY/WX   TEMP    WIND        PRES    WAVE   SWELL
                          AIR SEA DIR/SP/G            HT/PER HT/PER
                          (F)     (DEG/KT/KT) (MB)    (FT/S) (FT/S)
CEDAR KEY                  84     270/  6/  8 1017.2F
28.5N   84.5W              83 84  220/  6/  8 1016.8F   1
27.3N   84.3W                 86                N/A     1/ 9
CLEARWATER BEACH           85 89  280/  4/  5 1016.8R
MIDDLE TAMPA BAY           84     170/  4/  5 1017.2F
VENICE                     83 89  120/  3/  4 1016.7F

$$
FLZ066-069-070-075>078-162-262-165-265-240700-
SOUTHWEST FLORIDA AND KEYS

CITY           SKY/WX    TMP DP  RH WIND       PRES   REMARKS
PUNTA GORDA    PTCLDY    77  75  93 CALM      30.05F
FT MYERS       CLEAR     78  75  90 CALM      30.03S
SOUTHWEST INTL CLEAR     77  74  90 CALM      30.03F
NAPLES         CLEAR     79  78  97 SE3       30.03F
MARATHON       PTCLDY    85  77  77 SE7       30.03S HX  95
KEY WEST NAS   PTCLDY    85  75  72 SE8       30.02F
KEY WEST INTL  PTCLDY    85  75  72 SE10      30.03F

STATION/POSITION SKY/WX   TEMP    WIND        PRES    WAVE   SWELL
                          AIR SEA DIR/SP/G            HT/PER HT/PER
                          (F)     (DEG/KT/KT) (MB)    (FT/S) (FT/S)
VENICE                     83 89  120/  3/  4 1016.7F
NAPLES                     80 93  100/  4/  5 1017.4F
DRY TORTUGAS               85     100/  7/  8 1017.2F
NW FL BAY                  86     140/  8/ 10 1017.3S
SAND KEY                   85     120/ 10/ 11 1016.8F
SOMBRERO KEY               85     110/ 13/ 15 1017.8F
LONG KEY                   85 89  130/ 10/ 12 1017.8F
MOLASSES REEF              85 86  100/  9/ 12 1017.1F

$$
FLZ067-068-071>074-168-172>174-240700-
SOUTHEAST FLORIDA

CITY           SKY/WX    TMP DP  RH WIND       PRES   REMARKS
W PALM BEACH   PTCLDY    82  74  76 CALM      30.03F
FT LAUDER-EXEC CLEAR     81  77  88 SE3       30.03F
FT LAUDERDALE  PTCLDY    82  75  79 SE5       30.02F
POMPANO BEACH  CLEAR     84  74  71 SE7       30.03F
PEMBROKE PINES CLEAR     81  76  84 CALM      30.04F
OPA LOCKA        N/A     82  76  81 SE5       30.03F
MIAMI          PTCLDY    82  75  79 SE5       30.03F
WEST KENDALL   CLEAR     80  76  87 CALM      30.03F
HOMESTEAD      CLEAR     81  76  85 SE7       30.03F

STATION/POSITION SKY/WX   TEMP    WIND        PRES    WAVE   SWELL
                          AIR SEA DIR/SP/G            HT/PER HT/PER
                          (F)     (DEG/KT/KT) (MB)    (FT/S) (FT/S)
PORT EVERGLADES            84     140/  9/ 11 1017.2
VIRGINIA KEY               84 87  140/  7/  8   N/A
LAKE WORTH                 84 82              1016.9F
FOWEY ROCKS                84 86  120/ 12/ 13 1017.6F
SETTLEMENT POINT           83     150/ 10/ 12 1018.5F

$$



USA.gov is the U.S. government's official web portal to all federal, state and local government web resources and services.